Overview Statistics Trail Chart Weather Telemetry Raw packets
 

This is the latest recevied weather packets stored in our database for station/object K1RFS. If no packets are shown the sender has not sent any weather packets the latest 10 day(s).

<< 76 77 78 79 80 81 82 >>
Time Temp. Humidity Pressure Rain* Wind** Luminosity Snow
1788144135 20.56° C 62% 1003 hPa 0 mm - 0 W/m² -
1788143834 20.56° C 58% 1003 hPa 0 mm - 0 W/m² -
1788143527 21.11° C 57% 1002.9 hPa 0 mm - 0 W/m² -
1788143222 21.11° C 56% 1003 hPa 0 mm - 0 W/m² -
1788142917 21.67° C 55% 1002.9 hPa 0 mm - 0 W/m² -
1788142616 21.67° C 54% 1003 hPa 0 mm - 0 W/m² -
1788142312 21.67° C 52% 1003 hPa 0 mm - 1 W/m² -
1788142008 22.22° C 51% 1002.6 hPa 0 mm - 2 W/m² -
1788141707 22.22° C 51% 1002.5 hPa 0 mm - 4 W/m² -
1788141403 22.78° C 50% 1002.5 hPa 0 mm - 5 W/m² -
1788141103 22.78° C 50% 1002.6 hPa 0 mm - 8 W/m² -
1788140797 22.78° C 50% 1002.5 hPa 0 mm - 10 W/m² -
1788140488 23.33° C 50% 1002.9 hPa 0 mm - 12 W/m² -
1788140184 23.33° C 49% 1002.6 hPa 0 mm - 14 W/m² -
1788139884 23.33° C 49% 1002.5 hPa 0 mm - 20 W/m² -
1788139578 23.33° C 49% 1002.3 hPa 0 mm - 23 W/m² -
1788139273 23.89° C 48% 1002.6 hPa 0 mm - 27 W/m² -
1788138967 23.89° C 47% 1002.6 hPa 0 mm - 29 W/m² -
1788138663 23.89° C 48% 1002.9 hPa 0 mm - 34 W/m² -
1788138358 23.89° C 49% 1002.5 hPa 0 mm - 39 W/m² -
1788138054 23.89° C 47% 1002.4 hPa 0 mm - 30 W/m² -
1788137749 23.89° C 47% 1002.6 hPa 0 mm - 51 W/m² -
1788137448 24.44° C 46% 1002.6 hPa 0 mm - 58 W/m² -
1788137145 24.44° C 47% 1002.9 hPa 0 mm - 64 W/m² -
1788136840 24.44° C 47% 1002.6 hPa 0 mm - 69 W/m² -

* Rain latest hour (hover to see other rain measurements)
** Current wind speed in m/s (hover to see current wind gust speed)